The Dalles, WA

4:49 PM PDT on May 27, 2017 (GMT -0700)
Columbia Gorge Regional-The Dalles

Weather History for KDLS - May, 2012

Change the Weather History Date:

Saturday, May 19, 2012

  Actual Average Record
Temperature  
Mean Temperature 59 °F -  
Max Temperature 77 °F 74 °F 91 °F (1993)
Min Temperature 43 °F 49 °F 34 °F (2003)
Degree Days  
Heating Degree Days 6    
Growing Degree Days 9 (Base 50)    
Moisture  
Dew Point 33 °F    
Average Humidity 36    
Maximum Humidity 68    
Minimum Humidity 17    
Precipitation  
Precipitation 0.00 in - - ()
Sea Level Pressure  
Sea Level Pressure 30.03 in    
Wind  
Wind Speed 4 mph (NW)    
Max Wind Speed 13 mph    
Max Gust Speed -    
Visibility 10 miles    
Events      
Averages and records for this station are not official NWS values.
T = Trace of Precipitation, MM = Missing Value Source: NWS Daily Summary

Daily Weather History Graph

Daily Weather History Graph

Search for Another Location

Airport or City:

Trip Planner

Search our weather history database for the weather conditions in past years. The results will help you decide how hot, cold, wet, or windy it might be!

Date:

Astronomy

May. 19, 2012 Rise Set
Actual Time 5:28 AM PDT 8:34 PM PDT
Civil Twilight 4:53 AM PDT 9:09 PM PDT
Nautical Twilight 4:07 AM PDT 9:55 PM PDT
Astronomical Twilight 3:12 AM PDT 10:51 PM PDT
Moon 4:37 AM PDT (5/19) 7:42 PM PDT (5/19)
Length of Visible Light 16h 16m
Length of Day
15h 05m
Waning Crescent, 1% of the Moon is Illuminated
May 19
Waning Crescent
May 20
New
May 28
First Quarter
Jun 4
Full
Jun 11
Last Quarter

Hourly Weather History & Observations

Time (PDT) Temp. Windchill Dew Point Humidity Pressure Visibility Wind Dir Wind Speed Gust Speed Precip Events Conditions
12:53 AM 55.9 °F - 33.1 °F 42% 30.04 in 10.0 mi Calm Calm - N/A   Clear
1:53 AM 51.1 °F - 34.0 °F 52% 30.05 in 10.0 mi Calm Calm - N/A   Clear
2:53 AM 46.0 °F 42.5 °F 30.9 °F 56% 30.05 in 10.0 mi ESE 6.9 mph - N/A   Clear
3:53 AM 45.0 °F 40.6 °F 30.0 °F 56% 30.06 in 10.0 mi ESE 8.1 mph - N/A   Clear
4:53 AM 48.0 °F - 34.0 °F 58% 30.06 in 10.0 mi Calm Calm - N/A   Clear
5:53 AM 43.0 °F 39.5 °F 33.1 °F 68% 30.07 in 10.0 mi SE 5.8 mph - N/A   Clear
6:53 AM 48.0 °F - 35.1 °F 61% 30.08 in 10.0 mi SE 3.5 mph - N/A   Clear
7:53 AM 54.0 °F - 35.1 °F 49% 30.08 in 10.0 mi Calm Calm - N/A   Clear
8:53 AM 55.9 °F - 36.0 °F 47% 30.08 in 10.0 mi Calm Calm - N/A   Clear
9:53 AM 60.1 °F - 36.0 °F 41% 30.06 in 10.0 mi Calm Calm - N/A   Clear
10:53 AM 64.9 °F - 36.0 °F 34% 30.05 in 10.0 mi Calm Calm - N/A   Clear
11:53 AM 70.0 °F - 34.0 °F 27% 30.04 in 10.0 mi North 5.8 mph - N/A   Clear
12:53 PM 73.9 °F - 26.1 °F 17% 30.01 in 10.0 mi Variable 3.5 mph - N/A   Partly Cloudy
1:53 PM 73.9 °F - 28.0 °F 18% 30.01 in 10.0 mi NW 5.8 mph - N/A   Partly Cloudy
2:53 PM 75.0 °F - 30.0 °F 19% 30.01 in 10.0 mi NW 6.9 mph - N/A   Mostly Cloudy
3:53 PM 75.0 °F - 33.1 °F 22% 30.00 in 10.0 mi NW 6.9 mph - N/A   Mostly Cloudy
4:53 PM 75.0 °F - 32.0 °F 21% 29.99 in 10.0 mi NNW 10.4 mph - N/A   Clear
5:53 PM 75.0 °F - 34.0 °F 22% 29.98 in 10.0 mi NNW 10.4 mph - N/A   Clear
6:53 PM 73.9 °F - 33.1 °F 22% 29.97 in 10.0 mi WNW 8.1 mph - N/A   Scattered Clouds
7:53 PM 69.1 °F - 35.1 °F 29% 29.98 in 10.0 mi NW 12.7 mph - N/A   Mostly Cloudy
8:53 PM 68.0 °F - 30.9 °F 25% 30.00 in 10.0 mi NNW 5.8 mph - N/A   Overcast
9:53 PM 66.0 °F - 30.0 °F 26% 30.01 in 10.0 mi WNW 9.2 mph - N/A   Overcast
10:53 PM 66.0 °F - 30.9 °F 27% 30.02 in 10.0 mi NW 6.9 mph - N/A   Overcast
11:53 PM 64.9 °F - 32.0 °F 29% 30.02 in 10.0 mi WNW 4.6 mph - N/A   Overcast